AL7LI Weather Reports


Display with metric or nautical units.
time (UTC)temp
F
wind
direction
speed
MPH
gust
MPH
rain 1hr
in
rain 24hr
in
rain mn
in
humidity
%
barometer
mb
20260504180016 74 148 6.0 16.0 0.00 0.00 0.00 35 1009.0
20260504173016 73 155 8.0 16.0 0.00 0.00 0.00 35 1008.7
20260504050015 85 163 5.0 11.0 0.00 0.00 0.00 22 1002.9
20260504043015 86 169 5.0 15.0 0.00 0.00 0.00 21 1002.7
20260504040036 88 166 6.0 20.0 0.00 0.00 0.00 20 1002.4
20260504033015 89 175 8.0 20.0 0.00 0.00 0.00 20 1001.9
20260504030015 89 178 7.0 19.0 0.00 0.00 0.00 21 1001.5
20260504023017 91 174 7.0 22.0 0.00 0.00 0.00 19 1001.3
20260504020016 93 166 8.0 22.0 0.00 0.00 0.00 17 1001.2
20260504013016 94 166 7.0 22.0 0.00 0.00 0.00 16 1001.3
20260504010017 94 159 9.0 22.0 0.00 0.00 0.00 15 1001.5
20260504003016 95 167 9.0 22.0 0.00 0.00 0.00 14 1001.6
20260504000017 96 170 11.0 23.0 0.00 0.00 0.00 13 1001.8
20260503233017 97 178 10.0 23.0 0.00 0.00 0.00 12 1001.8
20260503230016 96 169 10.0 24.0 0.00 0.00 0.00 12 1002.1
20260503223017 97 176 10.0 24.0 0.00 0.00 0.00 12 1002.5
20260503220017 97 162 10.0 23.0 0.00 0.00 0.00 12 1002.9
20260503213016 96 173 11.0 25.0 0.00 0.00 0.00 12 1003.4
20260503210016 97 170 10.0 25.0 0.00 0.00 0.00 14 1003.7
20260503203016 95 138 9.0 20.0 0.00 0.00 0.00 17 1004.1
20260503200016 95 148 10.0 26.0 0.00 0.00 0.00 16 1004.7
20260503193016 95 160 10.0 26.0 0.00 0.00 0.00 16 1005.3
20260503190016 93 175 3.0 15.0 0.00 0.00 0.00 17 1005.9
20260503183016 91 148 3.0 8.0 0.00 0.00 0.00 17 1006.7